Weather History for Marshfield, MA

Change the Weather History Date:

Friday, April 19, 2013

  Actual Average (KPYM) Record (KPYM)
Temperature  
Mean Temperature 63 °F -  
Max Temperature 73 °F 59 °F 90 °F (1976)
Min Temperature 53 °F 35 °F 20 °F (1990)
Degree Days  
Heating Degree Days 2    
Growing Degree Days 13 (Base 50)    
Moisture  
Dew Point 60 °F    
Average Humidity 86    
Maximum Humidity 100    
Minimum Humidity 64    
Precipitation  
Precipitation 0.02 in - - ()
Sea Level Pressure  
Sea Level Pressure 29.94 in    
Wind  
Wind Speed 11 mph (South)    
Max Wind Speed 24 mph    
Max Gust Speed 34 mph    
Visibility 9 miles    
Events Rain    
Averages and records for this station are not official NWS values.
T = Trace of Precipitation, MM = Missing Value Source: NWS Daily Summary

Daily Weather History Graph

Daily Weather History Graph

Search for Another Location

Airport:

Trip Planner

Search our weather history database for the weather conditions in past years. The results will help you decide how hot, cold, wet, or windy it might be!

Date:

Astronomy

Apr. 19, 2013 Rise Set
Actual Time 5:55 AM EDT 7:28 PM EDT
Civil Twilight 5:26 AM EDT 7:58 PM EDT
Nautical Twilight 4:50 AM EDT 8:33 PM EDT
Astronomical Twilight 4:12 AM EDT 9:11 PM EDT
Moon 1:03 PM EDT (4/19) 2:15 AM EDT (4/19)
Length of Visible Light 14h 32m
Length of Day
13h 33m
First Quarter, 61% of the Moon is Illuminated
Apr 19
First Quarter
Apr 25
Full
May 2
Last Quarter
May 9
New
May 18
First Quarter

Hourly Weather History & Observations

Time (EDT) Temp. Dew Point Humidity Pressure Visibility Wind Dir Wind Speed Gust Speed Precip Events Conditions
12:15 AM 53.6 °F 46.4 °F 77% 30.18 in 10.0 mi SSE 8.1 mph - N/A   Overcast
12:35 AM 53.6 °F 48.2 °F 82% 30.17 in 10.0 mi SSE 8.1 mph - N/A   Overcast
12:55 AM 53.6 °F 48.2 °F 82% 30.16 in 10.0 mi SSE 10.4 mph - N/A   Overcast
1:15 AM 53.6 °F 50.0 °F 88% 30.15 in 10.0 mi South 11.5 mph 16.1 mph N/A   Overcast
1:35 AM 53.6 °F 51.8 °F 94% 30.14 in 10.0 mi South 8.1 mph - N/A   Overcast
1:55 AM 55.4 °F 51.8 °F 88% 30.13 in 10.0 mi SSE 8.1 mph - N/A   Overcast
2:15 AM 55.4 °F 53.6 °F 94% 30.12 in 10.0 mi South 5.8 mph - N/A   Overcast
2:35 AM 55.4 °F 53.6 °F 94% 30.11 in 10.0 mi South 5.8 mph - N/A   Overcast
2:55 AM 55.4 °F 53.6 °F 94% 30.10 in 10.0 mi South 6.9 mph - N/A   Overcast
3:15 AM 55.4 °F 55.4 °F 100% 30.09 in 10.0 mi South 5.8 mph - N/A   Overcast
3:35 AM 55.4 °F 55.4 °F 100% 30.08 in 10.0 mi South 5.8 mph - N/A   Overcast
3:55 AM 57.2 °F 55.4 °F 94% 30.06 in 10.0 mi South 4.6 mph - N/A   Overcast
4:15 AM 57.2 °F 55.4 °F 94% 30.06 in 10.0 mi South 8.1 mph - N/A   Overcast
4:35 AM 57.2 °F 57.2 °F 100% 30.06 in 10.0 mi South 6.9 mph - N/A   Overcast
4:55 AM 57.2 °F 57.2 °F 100% 30.05 in 10.0 mi South 6.9 mph - N/A   Overcast
5:15 AM 59.0 °F 57.2 °F 94% 30.05 in 10.0 mi SSW 8.1 mph - N/A   Overcast
5:35 AM 59.0 °F 57.2 °F 94% 30.04 in 10.0 mi South 6.9 mph - N/A   Overcast
5:55 AM 57.2 °F 57.2 °F 100% 30.04 in 10.0 mi South 5.8 mph - N/A   Overcast
6:15 AM 59.0 °F 57.2 °F 94% 30.04 in 10.0 mi South 6.9 mph - N/A   Overcast
6:55 AM 59.0 °F 57.2 °F 94% 30.04 in 10.0 mi South 11.5 mph 18.4 mph N/A   Overcast
7:15 AM 60.8 °F 57.2 °F 88% 30.03 in 10.0 mi South 10.4 mph 17.3 mph N/A   Overcast
7:35 AM 60.8 °F 57.2 °F 88% 30.03 in 10.0 mi South 8.1 mph 17.3 mph N/A   Mostly Cloudy
7:55 AM 62.6 °F 59.0 °F 88% 30.02 in 10.0 mi South 10.4 mph 18.4 mph N/A   Mostly Cloudy
8:15 AM 64.4 °F 59.0 °F 83% 30.02 in 10.0 mi SSW 10.4 mph 16.1 mph N/A   Mostly Cloudy
8:35 AM 66.2 °F 59.0 °F 78% 30.02 in 10.0 mi SSW 9.2 mph 20.7 mph N/A   Mostly Cloudy
8:55 AM 66.2 °F 59.0 °F 78% 30.02 in 10.0 mi South 12.7 mph 24.2 mph N/A   Mostly Cloudy
9:15 AM 66.2 °F 59.0 °F 78% 30.01 in 10.0 mi South 12.7 mph 21.9 mph N/A   Mostly Cloudy
9:35 AM 68.0 °F 60.8 °F 78% 30.01 in 10.0 mi South 12.7 mph 16.1 mph N/A   Overcast
9:55 AM 69.8 °F 60.8 °F 73% 30.01 in 10.0 mi South 12.7 mph 23.0 mph N/A   Scattered Clouds
10:15 AM 69.8 °F 60.8 °F 73% 30.00 in 10.0 mi South 15.0 mph 20.7 mph N/A   Scattered Clouds
10:55 AM 71.6 °F 60.8 °F 69% 29.98 in 10.0 mi South 15.0 mph 21.9 mph N/A   Mostly Cloudy
11:15 AM 71.6 °F 60.8 °F 69% 29.97 in 10.0 mi South 16.1 mph 24.2 mph N/A   Overcast
11:35 AM 73.4 °F 60.8 °F 65% 29.96 in 10.0 mi SSW 10.4 mph 23.0 mph N/A   Mostly Cloudy
11:55 AM 71.6 °F 59.0 °F 64% 29.96 in 10.0 mi SSW 18.4 mph 28.8 mph N/A   Mostly Cloudy
12:15 PM 71.6 °F 60.8 °F 69% 29.95 in 10.0 mi South 15.0 mph 26.5 mph N/A   Mostly Cloudy
12:35 PM 71.6 °F 60.8 °F 69% 29.94 in 10.0 mi SSW 16.1 mph 28.8 mph N/A   Overcast
12:55 PM 71.6 °F 60.8 °F 69% 29.93 in 10.0 mi SSW 13.8 mph 26.5 mph N/A   Mostly Cloudy
1:15 PM 73.4 °F 60.8 °F 65% 29.92 in 10.0 mi SSW 12.7 mph 24.2 mph N/A   Mostly Cloudy
1:35 PM 71.6 °F 62.6 °F 73% 29.92 in 8.0 mi SSW 10.4 mph 33.4 mph N/A   Mostly Cloudy
1:55 PM 71.6 °F 62.6 °F 73% 29.91 in 10.0 mi South 15.0 mph 21.9 mph N/A   Mostly Cloudy
2:15 PM 73.4 °F 62.6 °F 69% 29.89 in 10.0 mi South 10.4 mph 26.5 mph N/A   Scattered Clouds
2:35 PM 73.4 °F 62.6 °F 69% 29.89 in 10.0 mi SSW 16.1 mph 29.9 mph N/A   Mostly Cloudy
2:55 PM 73.4 °F 60.8 °F 65% 29.88 in 10.0 mi SSW 17.3 mph 28.8 mph N/A   Mostly Cloudy
3:15 PM 71.6 °F 62.6 °F 73% 29.87 in 10.0 mi South 15.0 mph 27.6 mph N/A   Overcast
3:35 PM 73.4 °F 62.6 °F 69% 29.86 in 10.0 mi South 19.6 mph 29.9 mph N/A   Mostly Cloudy
3:55 PM 71.6 °F 62.6 °F 73% 29.85 in 10.0 mi South 23.0 mph 33.4 mph N/A   Mostly Cloudy
4:15 PM 71.6 °F 62.6 °F 73% 29.84 in 6.0 mi South 16.1 mph 31.1 mph N/A   Haze
4:35 PM 69.8 °F 62.6 °F 78% 29.83 in 10.0 mi South 12.7 mph 29.9 mph N/A   Mostly Cloudy
5:15 PM 66.2 °F 64.4 °F 94% 29.83 in 4.0 mi South 16.1 mph 26.5 mph N/A Rain Light Rain
5:35 PM 66.2 °F 64.4 °F 94% 29.82 in 10.0 mi South 15.0 mph 29.9 mph N/A   Overcast
5:55 PM 66.2 °F 62.6 °F 88% 29.81 in 10.0 mi South 11.5 mph 18.4 mph N/A   Overcast
6:15 PM 64.4 °F 62.6 °F 94% 29.80 in 2.5 mi South 15.0 mph 24.2 mph N/A Rain Light Rain
6:35 PM 64.4 °F 62.6 °F 94% 29.80 in 3.0 mi South 16.1 mph 27.6 mph N/A   Overcast
6:55 PM 64.4 °F 62.6 °F 94% 29.80 in 10.0 mi South 16.1 mph 26.5 mph N/A   Overcast
7:15 PM 64.4 °F 62.6 °F 94% 29.80 in 10.0 mi South 13.8 mph 27.6 mph N/A   Overcast
7:35 PM 64.4 °F 62.6 °F 94% 29.80 in 10.0 mi South 11.5 mph 24.2 mph N/A   Light Drizzle
7:55 PM 64.4 °F 62.6 °F 94% 29.80 in 10.0 mi South 15.0 mph 23.0 mph N/A   Overcast
8:15 PM 64.4 °F 62.6 °F 94% 29.79 in 9.0 mi South 16.1 mph 29.9 mph N/A   Light Drizzle
8:35 PM 64.4 °F 62.6 °F 94% 29.79 in 10.0 mi South 18.4 mph 28.8 mph N/A   Overcast
8:55 PM 64.4 °F 62.6 °F 94% 29.78 in 10.0 mi South 18.4 mph 27.6 mph N/A   Overcast
9:15 PM 64.4 °F 64.4 °F 100% 29.78 in 10.0 mi South 13.8 mph 26.5 mph N/A   Overcast
9:35 PM 64.4 °F 62.6 °F 94% 29.78 in 9.0 mi South 10.4 mph 25.3 mph N/A Rain Light Rain
9:55 PM 64.4 °F 62.6 °F 94% 29.77 in 10.0 mi South 13.8 mph 24.2 mph 0.01 in   Overcast
10:15 PM 64.4 °F 62.6 °F 94% 29.76 in 10.0 mi South 15.0 mph 27.6 mph N/A   Light Drizzle
10:35 PM 64.4 °F 64.4 °F 100% 29.75 in 2.5 mi South 16.1 mph 26.5 mph N/A   Light Drizzle
10:55 PM 66.2 °F 64.4 °F 94% 29.75 in 2.0 mi South 17.3 mph 25.3 mph N/A   Light Drizzle
11:15 PM 66.2 °F 64.4 °F 94% 29.75 in 1.5 mi South 12.7 mph 28.8 mph N/A   Light Drizzle
11:35 PM 66.2 °F 66.2 °F 100% 29.74 in 1.8 mi South 15.0 mph 33.4 mph N/A Rain Light Rain
11:55 PM 66.2 °F 64.4 °F 94% 29.73 in 2.5 mi SSW 24.2 mph 34.5 mph 0.01 in   Light Drizzle